Regional Weather Roundup
Issued by NWS

Home | Current Version | Previous Version | Text Only | Print | Product List | Glossary On
Versions: 1 2 3 4 5 6 7 8 9 10 11 12 13 14 15 16 17 18 19 20 21 22 23 24 25 26 27 28 29 30 31 32 33 34 35 36 37 38 39 40 41 42 43 44 45 46 47 48 49 50
000
ASUS43 KDTX 041301
RWRMI
MICHIGAN HOURLY REGIONAL WEATHER ROUNDUP
NATIONAL WEATHER SERVICE DETROIT/PONTIAC MI
800 AM EST SUN DEC 04 2016

NOTE: "FAIR" INDICATES FEW OR NO CLOUDS BELOW 12,000 FEET WITH NO
SIGNIFICANT WEATHER AND/OR OBSTRUCTION TO VISIBILITY.

MIZ047>049-052>055-059>063-066>070-074>076-081>083-041400-
SOUTHEAST LOWER MICHIGAN

CITY           SKY/WX    TMP DP  RH WIND       PRES   REMARKS
ADRIAN         CLOUDY    31  30  96 SE3       30.22F
ALMA           CLOUDY    33  31  92 SW5       30.21S WCI  29
ANN ARBOR      CLOUDY    33  29  85 SE6       30.22R WCI  28
BAD AXE        CLOUDY    32  31  94 S3        30.22S
CARO           CLOUDY    32  31  98 CALM      30.21S
DETROIT CITY   CLOUDY    35  29  78 S3        30.24S
DETROIT        CLOUDY    35  28  75 S3        30.24S
FLINT          CLOUDY    32  29  88 SE3       30.22S
GROSSE ILE     CLOUDY    35  26  70 CALM      30.23S
HILLSDALE      CLOUDY    32  27  80 SE3       30.18F
HOWELL         CLOUDY    33  28  83 SE3       30.21R

CITY           SKY/WX    TMP DP  RH WIND       PRES   REMARKS
JACKSON        CLOUDY    32  26  78 SE3       30.20S
LAMBERTVILLE   CLOUDY    33  29  85 CALM      30.23F
LANSING        CLOUDY    33  27  78 CALM      30.21S
LAPEER         NOT AVBL
MASON          CLOUDY    32  29  88 CALM      30.21S
MONROE         CLOUDY    31  28  90 CALM      30.23S
MT. CLEMENS    CLOUDY    36  29  77 SW3       30.22S
PONTIAC        CLOUDY    34  28  79 CALM      30.21R
PORT HOPE        N/A     35  32  88 CALM      30.20F
PORT HURON     CLOUDY    34  32  93 CALM      30.24S
TRI CITIES     CLOUDY    33  31  92 SE3       30.23R
MIDLAND        CLOUDY    33  29  83 CALM      30.21S
TROY           CLOUDY    36  28  74 CALM      30.25R
SAGINAW HB     CLOUDY    34  30  86 CALM      30.22R
$$
MIZ043>046-050>051-056>058-064>065-071>073-077>080-041400-
SOUTHWEST LOWER MICHIGAN

CITY           SKY/WX    TMP DP  RH WIND       PRES   REMARKS
BATTLE CREEK   CLOUDY    32  28  85 SE3       30.19F
BENTON HARBOR  CLOUDY    33  25  72 SE6       30.19S WCI  28
BIG RAPIDS     CLOUDY    33  28  80 CALM      30.17F
COLDWATER      CLOUDY    32  27  80 SE3       30.19S
FREMONT        CLOUDY    33  27  77 SE6       30.18S WCI  27
HOLLAND        CLOUDY    33  27  78 SE7       30.19S WCI  27
GRAND RAPIDS   CLOUDY    33  26  75 S3        30.21R
IONIA          CLOUDY    33  28  80 CALM      30.20S
KALAMAZOO      CLOUDY    33  27  78 SE3       30.19F HAZE
LUDINGTON      CLOUDY    33  29  88 SE5       30.17S WCI  28
MARSHALL       CLOUDY    31  27  85 CALM      30.20S
MOUNT PLEASANT CLOUDY    33  29  85 SE5       30.20R WCI  28
MUSKEGON       CLOUDY    35  27  72 SE10      30.18S WCI  27
SOUTH HAVEN    CLOUDY    35  28  76 CALM      30.19F
$$
MIZ016>042-041400-
NORTHERN LOWER MICHIGAN

CITY           SKY/WX    TMP DP  RH WIND       PRES   REMARKS
ALPENA         CLOUDY    33  31  92 CALM      30.21S
BEAVER ISLAND  CLOUDY    35  32  87 S5        30.16F WCI  31
BELLAIRE       CLOUDY    33  32  95 CALM      30.19F
CADILLAC       CLOUDY    31  26  83 SE5       30.15S WCI  26
CHARLEVOIX     CLOUDY    33  33  98 S7        30.20S WCI  27
FRANKFORT      CLOUDY    33  30  91 SE3       30.17F
GAYLORD        CLOUDY    32  29  88 CALM      30.16F
GRAYLING       CLOUDY    32  31  95 CALM      30.18F
HARBOR SPRINGS CLOUDY    33  31  92 CALM      30.18F
HOUGHTON LAKE  CLOUDY    30  27  88 CALM      30.18F
MANISTEE       CLOUDY    32  27  81 SE5       30.18R WCI  27
OSCODA         CLOUDY    34  32  94 MISG      30.20F
PELLSTON       CLOUDY    33  31  92 CALM      30.18F
ROGERS CITY    CLOUDY    34  32  90 S3        30.21F
TRAVERSE CITY  CLOUDY    33  28  81 CALM      30.17F
$$
MIZ007>008-015-041400-
EASTERN UPPER MICHIGAN

CITY           SKY/WX    TMP DP  RH WIND       PRES   REMARKS
KINROSS        LGT SNOW  31  30  96 E10       30.18S FOG     WCI  22
MACKINAC ISLAN CLOUDY    35  31  87 S5        30.17F WCI  31
NEWBERRY       CLOUDY    31  31  97 SE6       30.14F WCI  26
S. S. MARIE    CLOUDY    31  25  78 E8        30.19F WCI  23
MUNISING         N/A     32  28  85 S5        30.13F WCI  27
$$
MIZ004>006-011>014-085-041400-
CENTRAL UPPER MICHIGAN

CITY           SKY/WX    TMP DP  RH WIND       PRES   REMARKS
MANISTIQUE     CLOUDY    32  30  92 CALM      30.14F
ESCANABA       CLOUDY    30  24  78 SW3       30.15F
MENOMINEE      CLOUDY    30  24  78 CALM      30.16S
SAWYER-GWINN   CLOUDY    28  21  74 SW8       30.10F WCI  20
$$
MIZ001>003-009>011-084-041400-
WESTERN UPPER MICHIGAN

CITY           SKY/WX    TMP DP  RH WIND       PRES   REMARKS
IRON MOUNTAIN  CLOUDY    28  21  75 S8        30.10R WCI  20
HOUGHTON       CLOUDY    30  22  72 SW10      30.06F WCI  21
COPPER HARBOR    N/A     34  27  75 SW5       30.07F WCI  30
IRONWOOD       CLOUDY    27  23  85 SE6       30.03F WCI  20
$$

ABBREVIATIONS USED IN REMARKS
   TC - TEMPERATURE IN CELSIUS
  WCI - WIND CHILL INDEX
   HX - HEAT INDEX
  VSB - VISIBILITY




USA.gov is the U.S. government's official web portal to all federal, state and local government web resources and services.